Year,Month,Day,Hour,Minute,Value (Times are PST for temperature in C)
2013,08,05,00,00,11.60
2013,08,05,00,01,11.60
2013,08,05,00,02,11.60
2013,08,05,00,03,11.60
2013,08,05,00,04,11.60
2013,08,05,00,05,11.70
2013,08,05,00,06,11.70
2013,08,05,00,07,11.70
2013,08,05,00,08,11.70
2013,08,05,00,09,11.80
2013,08,05,00,10,11.80
2013,08,05,00,11,11.80
2013,08,05,00,12,11.80
2013,08,05,00,13,11.80
2013,08,05,00,14,11.80
2013,08,05,00,15,11.80
2013,08,05,00,16,11.70
2013,08,05,00,17,11.70
2013,08,05,00,18,11.70
2013,08,05,00,19,11.70
2013,08,05,00,20,11.70
2013,08,05,00,21,11.70
2013,08,05,00,22,11.70
2013,08,05,00,23,11.60
2013,08,05,00,24,11.60
2013,08,05,00,25,11.60
2013,08,05,00,26,11.60
2013,08,05,00,27,11.60
2013,08,05,00,28,11.60
2013,08,05,00,29,11.60
2013,08,05,00,30,11.60
2013,08,05,00,31,11.50
2013,08,05,00,32,11.40
2013,08,05,00,33,11.40
2013,08,05,00,34,11.40
2013,08,05,00,35,11.40
2013,08,05,00,36,11.40
2013,08,05,00,37,11.40
2013,08,05,00,38,11.40
2013,08,05,00,39,11.40
2013,08,05,00,40,11.40
2013,08,05,00,41,11.30
2013,08,05,00,42,11.30
2013,08,05,00,43,11.30
2013,08,05,00,44,11.30
2013,08,05,00,45,11.30
2013,08,05,00,46,11.30
2013,08,05,00,47,11.30
2013,08,05,00,48,11.30
2013,08,05,00,49,11.30
2013,08,05,00,50,11.30
2013,08,05,00,51,11.30
2013,08,05,00,52,11.30
2013,08,05,00,53,11.30
2013,08,05,00,54,11.30
2013,08,05,00,55,11.30
2013,08,05,00,56,11.30
2013,08,05,00,57,11.30
2013,08,05,00,58,11.30
2013,08,05,00,59,11.30
2013,08,05,01,00,11.30
2013,08,05,01,01,11.30
2013,08,05,01,02,11.20
2013,08,05,01,03,11.20
2013,08,05,01,04,11.20
2013,08,05,01,05,11.20
2013,08,05,01,06,11.20
2013,08,05,01,07,11.20
2013,08,05,01,08,11.10
2013,08,05,01,09,11.10
2013,08,05,01,10,11.10
2013,08,05,01,11,11.10
2013,08,05,01,12,11.10
2013,08,05,01,13,11.10
2013,08,05,01,14,11.10
2013,08,05,01,15,11.10
2013,08,05,01,16,11.10
2013,08,05,01,17,11.10
2013,08,05,01,18,11.10
2013,08,05,01,19,11.10
2013,08,05,01,20,11.10
2013,08,05,01,21,10.90
2013,08,05,01,22,10.90
2013,08,05,01,23,10.90
2013,08,05,01,24,10.90
2013,08,05,01,25,10.90
2013,08,05,01,26,10.90
2013,08,05,01,27,10.90
2013,08,05,01,28,10.90
2013,08,05,01,29,10.90
2013,08,05,01,30,10.90
2013,08,05,01,31,10.90
2013,08,05,01,32,10.90
2013,08,05,01,33,10.90
2013,08,05,01,34,10.90
2013,08,05,01,35,10.80
2013,08,05,01,36,10.80
2013,08,05,01,37,10.80
2013,08,05,01,38,10.80
2013,08,05,01,39,10.80
2013,08,05,01,40,10.80
2013,08,05,01,41,10.80
2013,08,05,01,42,10.80
2013,08,05,01,43,10.80
2013,08,05,01,44,10.80
2013,08,05,01,45,10.80
2013,08,05,01,46,10.80
2013,08,05,01,47,10.70
2013,08,05,01,48,10.70
2013,08,05,01,49,10.70
2013,08,05,01,50,10.70
2013,08,05,01,51,10.70
2013,08,05,01,52,10.70
2013,08,05,01,53,10.70
2013,08,05,01,54,10.70
2013,08,05,01,55,10.70
2013,08,05,01,56,10.70
2013,08,05,01,57,10.70
2013,08,05,01,58,10.70
2013,08,05,01,59,10.70
2013,08,05,02,00,10.70
2013,08,05,02,01,10.70
2013,08,05,02,02,10.70
2013,08,05,02,03,10.70
2013,08,05,02,04,10.60
2013,08,05,02,05,10.60
2013,08,05,02,06,10.60
2013,08,05,02,07,10.60
2013,08,05,02,08,10.60
2013,08,05,02,09,10.60
2013,08,05,02,10,10.60
2013,08,05,02,11,10.70
2013,08,05,02,12,10.70
2013,08,05,02,13,10.70
2013,08,05,02,14,10.70
2013,08,05,02,15,10.70
2013,08,05,02,16,10.70
2013,08,05,02,17,10.70
2013,08,05,02,18,10.70
2013,08,05,02,19,10.70
2013,08,05,02,20,10.70
2013,08,05,02,21,10.70
2013,08,05,02,22,10.80
2013,08,05,02,23,10.80
2013,08,05,02,24,10.80
2013,08,05,02,25,10.80
2013,08,05,02,26,10.80
2013,08,05,02,27,10.80
2013,08,05,02,28,10.80
2013,08,05,02,29,10.80
2013,08,05,02,30,10.80
2013,08,05,02,31,10.80
2013,08,05,02,32,10.80
2013,08,05,02,33,10.80
2013,08,05,02,34,10.70
2013,08,05,02,35,10.70
2013,08,05,02,36,10.70
2013,08,05,02,37,10.70
2013,08,05,02,38,10.70
2013,08,05,02,39,10.70
2013,08,05,02,40,10.70
2013,08,05,02,41,10.70
2013,08,05,02,42,10.70
2013,08,05,02,43,10.60
2013,08,05,02,44,10.60
2013,08,05,02,45,10.60
2013,08,05,02,46,10.60
2013,08,05,02,47,10.60
2013,08,05,02,48,10.60
2013,08,05,02,49,10.60
2013,08,05,02,50,10.60
2013,08,05,02,51,10.60
2013,08,05,02,52,10.60
2013,08,05,02,53,10.60
2013,08,05,02,54,10.50
2013,08,05,02,55,10.40
2013,08,05,02,56,10.40
2013,08,05,02,57,10.40
2013,08,05,02,58,10.40
2013,08,05,02,59,10.40
2013,08,05,03,00,10.40
2013,08,05,03,01,10.30
2013,08,05,03,02,10.30
2013,08,05,03,03,10.30
2013,08,05,03,04,10.30
2013,08,05,03,05,10.30
2013,08,05,03,06,10.30
2013,08,05,03,07,10.30
2013,08,05,03,08,10.30
2013,08,05,03,09,10.30
2013,08,05,03,10,10.30
2013,08,05,03,11,10.30
2013,08,05,03,12,10.30
2013,08,05,03,13,10.30
2013,08,05,03,14,10.30
2013,08,05,03,15,10.30
2013,08,05,03,16,10.30
2013,08,05,03,17,10.30
2013,08,05,03,18,10.30
2013,08,05,03,19,10.20
2013,08,05,03,20,10.20
2013,08,05,03,21,10.20
2013,08,05,03,22,10.20
2013,08,05,03,23,10.20
2013,08,05,03,24,10.20
2013,08,05,03,25,10.20
2013,08,05,03,26,10.20
2013,08,05,03,27,10.20
2013,08,05,03,28,10.20
2013,08,05,03,29,10.20
2013,08,05,03,30,10.20
2013,08,05,03,31,10.20
2013,08,05,03,32,10.20
2013,08,05,03,33,10.20
2013,08,05,03,34,10.20
2013,08,05,03,35,10.20
2013,08,05,03,36,10.20
2013,08,05,03,37,10.20
2013,08,05,03,38,10.20
2013,08,05,03,39,10.20
2013,08,05,03,40,10.20
2013,08,05,03,41,10.20
2013,08,05,03,42,10.20
2013,08,05,03,43,10.20
2013,08,05,03,44,10.20
2013,08,05,03,45,10.20
2013,08,05,03,46,10.10
2013,08,05,03,47,10.10
2013,08,05,03,48,10.10
2013,08,05,03,49,10.10
2013,08,05,03,50,10.10
2013,08,05,03,51,10.10
2013,08,05,03,52,10.10
2013,08,05,03,53,10.10
2013,08,05,03,54,10.10
2013,08,05,03,55,10.10
2013,08,05,03,56,10.10
2013,08,05,03,57,10.10
2013,08,05,03,58,10.10
2013,08,05,03,59,10.10
2013,08,05,04,00,10.10
2013,08,05,04,01,10.10
2013,08,05,04,02,10.10
2013,08,05,04,03,10.10
2013,08,05,04,04,10.10
2013,08,05,04,05,10.10
2013,08,05,04,06,10.10
2013,08,05,04,07,10.10
2013,08,05,04,08,10.10
2013,08,05,04,09,10.10
2013,08,05,04,10,10.10
2013,08,05,04,11,10.10
2013,08,05,04,12,10.10
2013,08,05,04,13,10.10
2013,08,05,04,14,10.10
2013,08,05,04,15,10.10
2013,08,05,04,16,10.10
2013,08,05,04,17,10.10
2013,08,05,04,18,9.90
2013,08,05,04,19,9.90
2013,08,05,04,20,9.90
2013,08,05,04,21,9.90
2013,08,05,04,22,9.90
2013,08,05,04,23,9.90
2013,08,05,04,24,9.90
2013,08,05,04,25,9.90
2013,08,05,04,26,9.90
2013,08,05,04,27,9.90
2013,08,05,04,28,9.90
2013,08,05,04,29,9.90
2013,08,05,04,30,9.90
2013,08,05,04,31,9.90
2013,08,05,04,32,9.90
2013,08,05,04,33,9.90
2013,08,05,04,34,9.90
2013,08,05,04,35,9.90
2013,08,05,04,36,9.90
2013,08,05,04,37,9.90
2013,08,05,04,38,9.80
2013,08,05,04,39,9.80
2013,08,05,04,40,9.80
2013,08,05,04,41,9.80
2013,08,05,04,42,9.80
2013,08,05,04,43,9.80
2013,08,05,04,44,9.80
2013,08,05,04,45,9.90
2013,08,05,04,46,9.90
2013,08,05,04,47,9.90
2013,08,05,04,48,9.90
2013,08,05,04,49,9.80
2013,08,05,04,50,9.80
2013,08,05,04,51,9.80
2013,08,05,04,52,9.80
2013,08,05,04,53,9.80
2013,08,05,04,54,9.80
2013,08,05,04,55,9.80
2013,08,05,04,56,9.80
2013,08,05,04,57,9.80
2013,08,05,04,58,9.80
2013,08,05,04,59,9.80
2013,08,05,05,00,9.90
2013,08,05,05,01,9.90
2013,08,05,05,02,9.90
2013,08,05,05,03,9.90
2013,08,05,05,04,9.90
2013,08,05,05,05,9.90
2013,08,05,05,06,9.90
2013,08,05,05,07,9.90
2013,08,05,05,08,9.90
2013,08,05,05,09,9.90
2013,08,05,05,10,9.90
2013,08,05,05,11,9.90
2013,08,05,05,12,9.90
2013,08,05,05,13,9.90
2013,08,05,05,14,9.90
2013,08,05,05,15,9.90
2013,08,05,05,16,9.90
2013,08,05,05,17,9.90
2013,08,05,05,18,9.90
2013,08,05,05,19,9.90
2013,08,05,05,20,9.90
2013,08,05,05,21,9.90
2013,08,05,05,22,9.90
2013,08,05,05,23,9.90
2013,08,05,05,24,9.90
2013,08,05,05,25,9.90
2013,08,05,05,26,9.90
2013,08,05,05,27,9.90
2013,08,05,05,28,9.90
2013,08,05,05,29,9.90
2013,08,05,05,30,9.90
2013,08,05,05,31,9.90
2013,08,05,05,32,9.90
2013,08,05,05,33,9.90
2013,08,05,05,34,9.90
2013,08,05,05,35,9.90
2013,08,05,05,36,9.90
2013,08,05,05,37,9.90
2013,08,05,05,38,9.90
2013,08,05,05,39,9.90
2013,08,05,05,40,9.90
2013,08,05,05,41,9.90
2013,08,05,05,42,9.90
2013,08,05,05,43,9.90
2013,08,05,05,44,9.90
2013,08,05,05,45,9.90
2013,08,05,05,46,9.90
2013,08,05,05,47,9.90
2013,08,05,05,48,9.90
2013,08,05,05,49,9.90
2013,08,05,05,50,9.90
2013,08,05,05,51,9.90
2013,08,05,05,52,9.90
2013,08,05,05,53,9.90
2013,08,05,05,54,9.90
2013,08,05,05,55,9.90
2013,08,05,05,56,9.90
2013,08,05,05,57,9.90
2013,08,05,05,58,9.90
2013,08,05,05,59,9.90
2013,08,05,06,00,9.90
2013,08,05,06,01,9.90
2013,08,05,06,02,9.90
2013,08,05,06,03,9.90
2013,08,05,06,04,9.90
2013,08,05,06,05,9.90
2013,08,05,06,06,9.90
2013,08,05,06,07,9.90
2013,08,05,06,08,9.90
2013,08,05,06,09,9.90
2013,08,05,06,10,9.90
2013,08,05,06,11,9.90
2013,08,05,06,12,9.90
2013,08,05,06,13,9.90
2013,08,05,06,14,9.90
2013,08,05,06,15,9.90
2013,08,05,06,16,10.10
2013,08,05,06,17,10.10
2013,08,05,06,18,10.10
2013,08,05,06,19,10.10
2013,08,05,06,20,10.10
2013,08,05,06,21,10.10
2013,08,05,06,22,10.10
2013,08,05,06,23,10.10
2013,08,05,06,24,10.10
2013,08,05,06,25,10.10
2013,08,05,06,26,10.10
2013,08,05,06,27,10.10
2013,08,05,06,28,10.10
2013,08,05,06,29,10.10
2013,08,05,06,30,10.20
2013,08,05,06,31,10.20
2013,08,05,06,32,10.20
2013,08,05,06,33,10.20
2013,08,05,06,34,10.20
2013,08,05,06,35,10.20
2013,08,05,06,36,10.20
2013,08,05,06,37,10.20
2013,08,05,06,38,10.20
2013,08,05,06,39,10.20
2013,08,05,06,40,10.20
2013,08,05,06,41,10.20
2013,08,05,06,42,10.20
2013,08,05,06,43,10.20
2013,08,05,06,44,10.20
2013,08,05,06,45,10.20
2013,08,05,06,46,10.20
2013,08,05,06,47,10.20
2013,08,05,06,48,10.20
2013,08,05,06,49,10.20
2013,08,05,06,50,10.20
2013,08,05,06,51,10.20
2013,08,05,06,52,10.30
2013,08,05,06,53,10.30
2013,08,05,06,54,10.30
2013,08,05,06,55,10.30
2013,08,05,06,56,10.30
2013,08,05,06,57,10.20
2013,08,05,06,58,10.20
2013,08,05,06,59,10.30
2013,08,05,07,00,10.30
2013,08,05,07,01,10.30
2013,08,05,07,02,10.30
2013,08,05,07,03,10.30
2013,08,05,07,04,10.30
2013,08,05,07,05,10.30
2013,08,05,07,06,10.30
2013,08,05,07,07,10.30
2013,08,05,07,08,10.30
2013,08,05,07,09,10.30
2013,08,05,07,10,10.30
2013,08,05,07,11,10.30
2013,08,05,07,12,10.30
2013,08,05,07,13,10.20
2013,08,05,07,14,10.20
2013,08,05,07,15,10.20
2013,08,05,07,16,10.20
2013,08,05,07,17,10.20
2013,08,05,07,18,10.20
2013,08,05,07,19,10.20
2013,08,05,07,20,10.20
2013,08,05,07,21,10.20
2013,08,05,07,22,10.20
2013,08,05,07,23,10.20
2013,08,05,07,24,10.20
2013,08,05,07,25,10.30
2013,08,05,07,26,10.30
2013,08,05,07,27,10.30
2013,08,05,07,28,10.30
2013,08,05,07,29,10.30
2013,08,05,07,30,10.30
2013,08,05,07,31,10.30
2013,08,05,07,32,10.40
2013,08,05,07,33,10.40
2013,08,05,07,34,10.40
2013,08,05,07,35,10.40
2013,08,05,07,36,10.40
2013,08,05,07,37,10.40
2013,08,05,07,38,10.50
2013,08,05,07,39,10.60
2013,08,05,07,40,10.60
2013,08,05,07,41,10.60
2013,08,05,07,42,10.60
2013,08,05,07,43,10.60
2013,08,05,07,44,10.50
2013,08,05,07,45,10.40
2013,08,05,07,46,10.40
2013,08,05,07,47,10.50
2013,08,05,07,48,10.60
2013,08,05,07,49,10.60
2013,08,05,07,50,10.60
2013,08,05,07,51,10.70
2013,08,05,07,52,10.80
2013,08,05,07,53,10.80
2013,08,05,07,54,10.80
2013,08,05,07,55,10.80
2013,08,05,07,56,10.80
2013,08,05,07,57,10.80
2013,08,05,07,58,10.80
2013,08,05,07,59,10.80
2013,08,05,08,00,10.90
2013,08,05,08,01,10.90
2013,08,05,08,02,10.90
2013,08,05,08,03,10.90
2013,08,05,08,04,10.90
2013,08,05,08,05,10.90
2013,08,05,08,06,10.90
2013,08,05,08,07,10.90
2013,08,05,08,08,10.90
2013,08,05,08,09,10.90
2013,08,05,08,10,10.90
2013,08,05,08,11,11.00
2013,08,05,08,12,11.10
2013,08,05,08,13,10.90
2013,08,05,08,14,10.90
2013,08,05,08,15,10.90
2013,08,05,08,16,10.90
2013,08,05,08,17,10.80
2013,08,05,08,18,10.80
2013,08,05,08,19,10.80
2013,08,05,08,20,10.70
2013,08,05,08,21,10.70
2013,08,05,08,22,10.70
2013,08,05,08,23,10.70
2013,08,05,08,24,10.70
2013,08,05,08,25,10.70
2013,08,05,08,26,10.80
2013,08,05,08,27,10.80
2013,08,05,08,28,10.80
2013,08,05,08,29,10.80
2013,08,05,08,30,10.80
2013,08,05,08,31,10.80
2013,08,05,08,32,10.80
2013,08,05,08,33,10.80
2013,08,05,08,34,10.80
2013,08,05,08,35,10.80
2013,08,05,08,36,10.80
2013,08,05,08,37,10.90
2013,08,05,08,38,10.80
2013,08,05,08,39,10.80
2013,08,05,08,40,10.90
2013,08,05,08,41,10.90
2013,08,05,08,42,10.90
2013,08,05,08,43,10.90
2013,08,05,08,44,10.90
2013,08,05,08,45,10.90
2013,08,05,08,46,10.90
2013,08,05,08,47,10.90
2013,08,05,08,48,10.90
2013,08,05,08,49,10.90
2013,08,05,08,50,10.90
2013,08,05,08,51,10.90
2013,08,05,08,52,11.10
2013,08,05,08,53,11.10
2013,08,05,08,54,11.10
2013,08,05,08,55,11.10
2013,08,05,08,56,11.10
2013,08,05,08,57,11.10
2013,08,05,08,58,11.20
2013,08,05,08,59,11.20
2013,08,05,09,00,11.20
2013,08,05,09,01,11.20
2013,08,05,09,02,11.20
2013,08,05,09,03,11.20
2013,08,05,09,04,11.20
2013,08,05,09,05,11.30
2013,08,05,09,06,11.40
2013,08,05,09,07,11.40
2013,08,05,09,08,11.40
2013,08,05,09,09,11.40
2013,08,05,09,10,11.50
2013,08,05,09,11,11.60
2013,08,05,09,12,11.60
2013,08,05,09,13,11.50
2013,08,05,09,14,11.40
2013,08,05,09,15,11.40
2013,08,05,09,16,11.30
2013,08,05,09,17,11.20
2013,08,05,09,18,11.20
2013,08,05,09,19,11.20
2013,08,05,09,20,11.20
2013,08,05,09,21,11.30
2013,08,05,09,22,11.30
2013,08,05,09,23,11.40
2013,08,05,09,24,11.40
2013,08,05,09,25,11.40
2013,08,05,09,26,11.40
2013,08,05,09,27,11.40
2013,08,05,09,28,11.40
2013,08,05,09,29,11.40
2013,08,05,09,30,11.40
2013,08,05,09,31,11.50
2013,08,05,09,32,11.60
2013,08,05,09,33,11.60
2013,08,05,09,34,11.60
2013,08,05,09,35,11.60
2013,08,05,09,36,11.60
2013,08,05,09,37,11.60
2013,08,05,09,38,11.60
2013,08,05,09,39,11.60
2013,08,05,09,40,11.60
2013,08,05,09,41,11.60
2013,08,05,09,42,11.60
2013,08,05,09,43,11.60
2013,08,05,09,44,11.60
2013,08,05,09,45,11.60
2013,08,05,09,46,11.50
2013,08,05,09,47,11.40
2013,08,05,09,48,11.40
2013,08,05,09,49,11.40
2013,08,05,09,50,11.40
2013,08,05,09,51,11.50
2013,08,05,09,52,11.60
2013,08,05,09,53,11.60
2013,08,05,09,54,11.60
2013,08,05,09,55,11.60
2013,08,05,09,56,11.70
2013,08,05,09,57,11.70
2013,08,05,09,58,11.70
2013,08,05,09,59,11.70
2013,08,05,10,00,11.60
2013,08,05,10,01,11.60
2013,08,05,10,02,11.70
2013,08,05,10,03,11.60
2013,08,05,10,04,11.60
2013,08,05,10,05,11.60
2013,08,05,10,06,11.60
2013,08,05,10,07,11.60
2013,08,05,10,08,11.60
2013,08,05,10,09,11.60
2013,08,05,10,10,11.60
2013,08,05,10,11,11.60
2013,08,05,10,12,11.60
2013,08,05,10,13,11.60
2013,08,05,10,14,11.60
2013,08,05,10,15,11.60
2013,08,05,10,16,11.60
2013,08,05,10,17,11.60
2013,08,05,10,18,11.60
2013,08,05,10,19,11.60
2013,08,05,10,20,11.70
2013,08,05,10,21,11.70
2013,08,05,10,22,11.70
2013,08,05,10,23,11.80
2013,08,05,10,24,11.80
2013,08,05,10,25,11.80
2013,08,05,10,26,11.80
2013,08,05,10,27,11.80
2013,08,05,10,28,11.80
2013,08,05,10,29,11.80
2013,08,05,10,30,11.80
2013,08,05,10,31,11.80
2013,08,05,10,32,11.80
2013,08,05,10,33,11.90
2013,08,05,10,34,12.00
2013,08,05,10,35,12.00
2013,08,05,10,36,12.00
2013,08,05,10,37,12.00
2013,08,05,10,38,12.00
2013,08,05,10,39,12.00
2013,08,05,10,40,12.00
2013,08,05,10,41,12.00
2013,08,05,10,42,12.00
2013,08,05,10,43,12.00
2013,08,05,10,44,12.00
2013,08,05,10,45,12.00
2013,08,05,10,46,12.00
2013,08,05,10,47,12.00
2013,08,05,10,48,12.00
2013,08,05,10,49,12.10
2013,08,05,10,50,12.10
2013,08,05,10,51,12.10
2013,08,05,10,52,12.10
2013,08,05,10,53,12.10
2013,08,05,10,54,12.20
2013,08,05,10,55,12.30
2013,08,05,10,56,12.30
2013,08,05,10,57,12.30
2013,08,05,10,58,12.30
2013,08,05,10,59,12.20
2013,08,05,11,00,12.20
2013,08,05,11,01,12.20
2013,08,05,11,02,12.10
2013,08,05,11,03,12.10
2013,08,05,11,04,12.10
2013,08,05,11,05,12.10
2013,08,05,11,06,12.10
2013,08,05,11,07,12.20
2013,08,05,11,08,12.30
2013,08,05,11,09,12.30
2013,08,05,11,10,12.30
2013,08,05,11,11,12.30
2013,08,05,11,12,12.20
2013,08,05,11,13,12.20
2013,08,05,11,14,12.20
2013,08,05,11,15,12.10
2013,08,05,11,16,12.10
2013,08,05,11,17,12.20
2013,08,05,11,18,12.10
2013,08,05,11,19,12.20
2013,08,05,11,20,12.10
2013,08,05,11,21,12.20
2013,08,05,11,22,12.20
2013,08,05,11,23,12.30
2013,08,05,11,24,12.30
2013,08,05,11,25,12.30
2013,08,05,11,26,12.30
2013,08,05,11,27,12.30
2013,08,05,11,28,12.20
2013,08,05,11,29,12.20
2013,08,05,11,30,12.20
2013,08,05,11,31,12.30
2013,08,05,11,32,12.30
2013,08,05,11,33,12.20
2013,08,05,11,34,12.20
2013,08,05,11,35,12.10
2013,08,05,11,36,12.20
2013,08,05,11,37,12.10
2013,08,05,11,38,12.10
2013,08,05,11,39,12.20
2013,08,05,11,40,12.10
2013,08,05,11,41,12.00
2013,08,05,11,42,12.00
2013,08,05,11,43,12.10
2013,08,05,11,44,12.20
2013,08,05,11,45,12.20
2013,08,05,11,46,12.20
2013,08,05,11,47,12.20
2013,08,05,11,48,12.10
2013,08,05,11,49,12.00
2013,08,05,11,50,11.90
2013,08,05,11,51,11.90
2013,08,05,11,52,11.90
2013,08,05,11,53,12.00
2013,08,05,11,54,12.00
2013,08,05,11,55,12.10
2013,08,05,11,56,12.20
2013,08,05,11,57,12.20
2013,08,05,11,58,12.20
2013,08,05,11,59,12.20
2013,08,05,12,00,12.20
2013,08,05,12,01,12.30
2013,08,05,12,02,12.50
2013,08,05,12,03,12.50
2013,08,05,12,04,12.50
2013,08,05,12,05,12.50
2013,08,05,12,06,12.50
2013,08,05,12,07,12.40
2013,08,05,12,08,12.40
2013,08,05,12,09,12.50
2013,08,05,12,10,12.50
2013,08,05,12,11,12.50
2013,08,05,12,12,12.50
2013,08,05,12,13,12.50
2013,08,05,12,14,12.60
2013,08,05,12,15,12.70
2013,08,05,12,16,12.70
2013,08,05,12,17,12.70
2013,08,05,12,18,12.80
2013,08,05,12,19,12.80
2013,08,05,12,20,12.80
2013,08,05,12,21,12.80
2013,08,05,12,22,12.80
2013,08,05,12,23,12.90
2013,08,05,12,24,12.90
2013,08,05,12,25,13.00
2013,08,05,12,26,13.00
2013,08,05,12,27,13.10
2013,08,05,12,28,13.20
2013,08,05,12,29,13.20
2013,08,05,12,30,13.20
2013,08,05,12,31,13.30
2013,08,05,12,32,13.30
2013,08,05,12,33,13.30
2013,08,05,12,34,13.30
2013,08,05,12,35,13.40
2013,08,05,12,36,13.50
2013,08,05,12,37,13.60
2013,08,05,12,38,13.70
2013,08,05,12,39,13.70
2013,08,05,12,40,13.70
2013,08,05,12,41,13.70
2013,08,05,12,42,13.70
2013,08,05,12,43,13.80
2013,08,05,12,44,13.80
2013,08,05,12,45,13.80
2013,08,05,12,46,13.80
2013,08,05,12,47,13.70
2013,08,05,12,48,13.70
2013,08,05,12,49,13.80
2013,08,05,12,50,13.80
2013,08,05,12,51,13.80
2013,08,05,12,52,13.80
2013,08,05,12,53,13.80
2013,08,05,12,54,13.70
2013,08,05,12,55,13.70
2013,08,05,12,56,13.70
2013,08,05,12,57,13.70
2013,08,05,12,58,13.70
2013,08,05,12,59,13.70
2013,08,05,13,00,13.70
2013,08,05,13,01,13.80
2013,08,05,13,02,14.00
2013,08,05,13,03,14.20
2013,08,05,13,04,14.20
2013,08,05,13,05,14.20
2013,08,05,13,06,14.20
2013,08,05,13,07,14.20
2013,08,05,13,08,14.20
2013,08,05,13,09,14.20
2013,08,05,13,10,14.30
2013,08,05,13,11,14.30
2013,08,05,13,12,14.20
2013,08,05,13,13,14.20
2013,08,05,13,14,14.30
2013,08,05,13,15,14.30
2013,08,05,13,16,14.20
2013,08,05,13,17,14.30
2013,08,05,13,18,14.30
2013,08,05,13,19,14.30
2013,08,05,13,20,14.20
2013,08,05,13,21,14.20
2013,08,05,13,22,14.10
2013,08,05,13,23,14.10
2013,08,05,13,24,14.10
2013,08,05,13,25,14.00
2013,08,05,13,26,13.80
2013,08,05,13,27,13.70
2013,08,05,13,28,13.80
2013,08,05,13,29,13.80
2013,08,05,13,30,13.80
2013,08,05,13,31,13.80
2013,08,05,13,32,13.80
2013,08,05,13,33,13.80
2013,08,05,13,34,13.80
2013,08,05,13,35,13.70
2013,08,05,13,36,13.70
2013,08,05,13,37,13.70
2013,08,05,13,38,13.60
2013,08,05,13,39,13.70
2013,08,05,13,40,13.70
2013,08,05,13,41,13.70
2013,08,05,13,42,13.80
2013,08,05,13,43,13.70
2013,08,05,13,44,13.80
2013,08,05,13,45,13.90
2013,08,05,13,46,13.90
2013,08,05,13,47,14.00
2013,08,05,13,48,14.00
2013,08,05,13,49,14.00
2013,08,05,13,50,14.10
2013,08,05,13,51,14.10
2013,08,05,13,52,14.10
2013,08,05,13,53,14.00
2013,08,05,13,54,13.90
2013,08,05,13,55,13.90
2013,08,05,13,56,13.80
2013,08,05,13,57,13.80
2013,08,05,13,58,13.70
2013,08,05,13,59,13.70
2013,08,05,14,00,13.70
2013,08,05,14,01,13.60
2013,08,05,14,02,13.60
2013,08,05,14,03,13.70
2013,08,05,14,04,13.80
2013,08,05,14,05,13.90
2013,08,05,14,06,14.00
2013,08,05,14,07,14.00
2013,08,05,14,08,14.20
2013,08,05,14,09,14.20
2013,08,05,14,10,14.20
2013,08,05,14,11,14.30
2013,08,05,14,12,14.40
2013,08,05,14,13,14.50
2013,08,05,14,14,14.50
2013,08,05,14,15,14.50
2013,08,05,14,16,14.40
2013,08,05,14,17,14.40
2013,08,05,14,18,14.30
2013,08,05,14,19,14.20
2013,08,05,14,20,14.20
2013,08,05,14,21,14.10
2013,08,05,14,22,14.10
2013,08,05,14,23,14.00
2013,08,05,14,24,13.90
2013,08,05,14,25,13.90
2013,08,05,14,26,13.90
2013,08,05,14,27,14.00
2013,08,05,14,28,14.00
2013,08,05,14,29,14.10
2013,08,05,14,30,14.20
2013,08,05,14,31,14.20
2013,08,05,14,32,14.20
2013,08,05,14,33,14.20
2013,08,05,14,34,14.40
2013,08,05,14,35,14.50
2013,08,05,14,36,14.60
2013,08,05,14,37,14.60
2013,08,05,14,38,14.60
2013,08,05,14,39,14.70
2013,08,05,14,40,14.70
2013,08,05,14,41,14.70
2013,08,05,14,42,14.70
2013,08,05,14,43,14.80
2013,08,05,14,44,14.80
2013,08,05,14,45,14.80
2013,08,05,14,46,14.80
2013,08,05,14,47,14.80
2013,08,05,14,48,14.70
2013,08,05,14,49,14.60
2013,08,05,14,50,14.70
2013,08,05,14,51,14.60
2013,08,05,14,52,14.70
2013,08,05,14,53,14.70
2013,08,05,14,54,14.70
2013,08,05,14,55,14.60
2013,08,05,14,56,14.80
2013,08,05,14,57,14.80
2013,08,05,14,58,14.80
2013,08,05,14,59,14.80
2013,08,05,15,00,14.80
2013,08,05,15,01,14.80
2013,08,05,15,02,14.80
2013,08,05,15,03,14.80
2013,08,05,15,04,14.80
2013,08,05,15,05,14.80
2013,08,05,15,06,14.90
2013,08,05,15,07,14.90
2013,08,05,15,08,14.90
2013,08,05,15,09,14.90
2013,08,05,15,10,14.90
2013,08,05,15,11,14.80
2013,08,05,15,12,14.70
2013,08,05,15,13,14.60
2013,08,05,15,14,14.60
2013,08,05,15,15,14.60
2013,08,05,15,16,14.60
2013,08,05,15,17,14.50
2013,08,05,15,18,14.50
2013,08,05,15,19,14.50
2013,08,05,15,20,14.50
2013,08,05,15,21,14.50
2013,08,05,15,22,14.50
2013,08,05,15,23,14.50
2013,08,05,15,24,14.40
2013,08,05,15,25,14.40
2013,08,05,15,26,14.30
2013,08,05,15,27,14.30
2013,08,05,15,28,14.40
2013,08,05,15,29,14.30
2013,08,05,15,30,14.20
2013,08,05,15,31,14.20
2013,08,05,15,32,14.20
2013,08,05,15,33,14.20
2013,08,05,15,34,14.20
2013,08,05,15,35,14.20
2013,08,05,15,36,14.20
2013,08,05,15,37,14.20
2013,08,05,15,38,14.00
2013,08,05,15,39,14.00
2013,08,05,15,40,14.00
2013,08,05,15,41,14.00
2013,08,05,15,42,14.00
2013,08,05,15,43,14.00
2013,08,05,15,44,14.10
2013,08,05,15,45,14.10
2013,08,05,15,46,14.00
2013,08,05,15,47,14.00
2013,08,05,15,48,14.10
2013,08,05,15,49,14.10
2013,08,05,15,50,14.10
2013,08,05,15,51,14.00
2013,08,05,15,52,14.00
2013,08,05,15,53,14.00
2013,08,05,15,54,14.00
2013,08,05,15,55,14.00
2013,08,05,15,56,13.90
2013,08,05,15,57,13.90
2013,08,05,15,58,13.90
2013,08,05,15,59,13.90
2013,08,05,16,00,13.90
2013,08,05,16,01,13.90
2013,08,05,16,02,14.00
2013,08,05,16,03,13.90
2013,08,05,16,04,13.80
2013,08,05,16,05,13.60
2013,08,05,16,06,13.50
2013,08,05,16,07,13.40
2013,08,05,16,08,13.30
2013,08,05,16,09,13.40
2013,08,05,16,10,13.40
2013,08,05,16,11,13.40
2013,08,05,16,12,13.40
2013,08,05,16,13,13.50
2013,08,05,16,14,13.60
2013,08,05,16,15,13.80
2013,08,05,16,16,13.80
2013,08,05,16,17,13.90
2013,08,05,16,18,13.80
2013,08,05,16,19,13.80
2013,08,05,16,20,13.70
2013,08,05,16,21,13.70
2013,08,05,16,22,13.70
2013,08,05,16,23,13.90
2013,08,05,16,24,13.90
2013,08,05,16,25,13.90
2013,08,05,16,26,13.90
2013,08,05,16,27,13.70
2013,08,05,16,28,13.70
2013,08,05,16,29,13.70
2013,08,05,16,30,13.90
2013,08,05,16,31,14.00
2013,08,05,16,32,14.10
2013,08,05,16,33,14.20
2013,08,05,16,34,14.20
2013,08,05,16,35,14.10
2013,08,05,16,36,14.00
2013,08,05,16,37,14.10
2013,08,05,16,38,14.10
2013,08,05,16,39,14.20
2013,08,05,16,40,14.30
2013,08,05,16,41,14.40
2013,08,05,16,42,14.40
2013,08,05,16,43,14.40
2013,08,05,16,44,14.40
2013,08,05,16,45,14.30
2013,08,05,16,46,14.40
2013,08,05,16,47,14.40
2013,08,05,16,48,14.30
2013,08,05,16,49,14.40
2013,08,05,16,50,14.60
2013,08,05,16,51,14.80
2013,08,05,16,52,14.90
2013,08,05,16,53,15.10
2013,08,05,16,54,15.30
2013,08,05,16,55,15.40
2013,08,05,16,56,15.40
2013,08,05,16,57,15.40
2013,08,05,16,58,15.40
2013,08,05,16,59,15.40
2013,08,05,17,00,15.50
2013,08,05,17,01,15.60
2013,08,05,17,02,15.60
2013,08,05,17,03,15.60
2013,08,05,17,04,15.60
2013,08,05,17,05,15.70
2013,08,05,17,06,15.80
2013,08,05,17,07,16.00
2013,08,05,17,08,16.10
2013,08,05,17,09,16.10
2013,08,05,17,10,16.20
2013,08,05,17,11,16.30
2013,08,05,17,12,16.40
2013,08,05,17,13,16.50
2013,08,05,17,14,16.60
2013,08,05,17,15,16.70
2013,08,05,17,16,16.80
2013,08,05,17,17,16.90
2013,08,05,17,18,16.90
2013,08,05,17,19,16.90
2013,08,05,17,20,17.00
2013,08,05,17,21,17.10
2013,08,05,17,22,17.20
2013,08,05,17,23,17.20
2013,08,05,17,24,17.20